Powrót do katalogu

FENGYUN 1C DEB

LostSSO
NORAD 32139·DEBRIS·🇨🇳 China

Wystrzelony May 10, 1999 z Taiyuan Satellite Launch Center

Loading…

Następne Przeloty (najbliższe 24 godziny)

TLE

NieaktualneSource: Space-Track

Epoka: Apr 26, 2024, 10:25 UTC

1 32139U 99025CSH 24117.43470839  .00010471  00000-0  25916-2 0  9994
2 32139  98.4216 178.7744 0189742 351.0887   8.6951 14.41815002564539

Śledź FENGYUN 1C DEB w czasie rzeczywistym z AllMySat

Download on the App Store